This is the latest recevied weather packets stored in our database for station/object DO2MIB-1. If no packets are shown the sender has not sent any weather packets the latest 10 day(s).
| Time | Temp. | Humidity | Pressure | Rain* | Wind** | Luminosity | Snow |
|---|---|---|---|---|---|---|---|
| 1778346780 | 26.11° C | 28% | 0 hPa | - | 0 m/s | - | - |
| 1778346333 | 26.11° C | 28% | 0 hPa | - | 0 m/s | - | - |
| 1778346151 | 25.56° C | 27% | 0 hPa | - | 0 m/s | - | - |
| 1778346068 | 26.11° C | 26% | 0 hPa | - | 0 m/s | - | - |
| 1778345737 | 25.56° C | 27% | 0 hPa | - | 0 m/s | - | - |
| 1778345588 | 25.56° C | 27% | 0 hPa | - | 0 m/s | - | - |
| 1778345472 | 26.11° C | 28% | 0 hPa | - | 0 m/s | - | - |
| 1778345439 | 25.56° C | 28% | 0 hPa | - | 0 m/s | - | - |
| 1778345290 | 25.56° C | 27% | 0 hPa | - | 0 m/s | - | - |
| 1778344876 | 25.56° C | 27% | 0 hPa | - | 0 m/s | - | - |
| 1778344661 | 23.89° C | 26% | 0 hPa | - | 0 m/s | - | - |
| 1778344628 | 23.33° C | 26% | 0 hPa | - | 0 m/s | - | - |
| 1778344462 | 25.56° C | 28% | 0 hPa | - | 0 m/s | - | - |
| 1778344379 | 26.11° C | 26% | 0 hPa | - | 0 m/s | - | - |
| 1778344263 | 25.56° C | 26% | 0 hPa | - | 0 m/s | - | - |
| 1778344230 | 26.11° C | 26% | 0 hPa | - | 0 m/s | - | - |
| 1778344131 | 25° C | 26% | 0 hPa | - | 0 m/s | - | - |
| 1778344048 | 25.56° C | 27% | 0 hPa | - | 0 m/s | - | - |
| 1778344015 | 25.56° C | 28% | 0 hPa | - | 0 m/s | - | - |
| 1778343767 | 22.78° C | 28% | 0 hPa | - | 0 m/s | - | - |
| 1778343651 | 23.33° C | 27% | 0 hPa | - | 0 m/s | - | - |
| 1778343568 | 25° C | 27% | 0 hPa | - | 0 m/s | - | - |
| 1778343502 | 23.33° C | 26% | 0 hPa | - | 0 m/s | - | - |
| 1778343402 | 26.11° C | 24% | 0 hPa | - | 0 m/s | - | - |
| 1778343386 | 23.89° C | 28% | 0 hPa | - | 0 m/s | - | - |
* Rain since midnight (hover to see other rain measurements)
** Current wind speed in m/s (hover to see current wind gust speed)